Tracking 28126 objects as of 2-Oct-2023
HD Live streaming from Space Station
objects crossing your sky now

QUANTUTONG 1

Track QUANTUTONG 1 now!
10-day predictions
QUANTUTONG 1 is classified as:


NORAD ID: 43158
Int'l Code: 2018-008D
Perigee: 486.7 km
Apogee: 497.7 km
Inclination: 97.3 °
Period: 94.3 minutes
Semi major axis: 6863 km
RCS: Unknown
Launch date: January 19, 2018
Source: People's Republic of China (PRC)
Launch site: Jiuquan Satellite Launch Center, China (JSC)

Uplink (MHz): 436.100/2415.000/5667.000
Downlink (MHz): 436.100/2415.000/5845.000
Beacon (MHz):
Mode: 9k6 GMSK/5Mbps OFDM
Call sign:
Status: Inactive

Your satellite tracking list
Your tracking list is empty




NASA's NSSDC Master Catalog

Two Line Element Set (TLE):
1 43158U 18008D   23274.70978619  .00027224  00000-0  10295-2 0  9999
2 43158  97.2924 321.5993 0008012 300.0096  60.0347 15.26902874314650
Source of the keplerian elements: AMSAT